Regional Weather Roundup
Issued by NWS Sterling, VA

Home | Current Version | Previous Version | Graphics & Text | Print | Product List | Glossary On
Versions: 1 2 3 4 5 6 7 8 9 10 11 12 13 14 15 16 17 18 19 20 21 22 23 24 25 26 27
000
ASUS41 KLWX 281011
RWRLWX

REGIONAL WEATHER ROUNDUP
NATIONAL WEATHER SERVICE BALTIMORE MD/WASHINGTON DC
600 AM EDT WED JUN 28 2017

Note: "FAIR" indicates few or no clouds below 12,000 feet
with no significant weather and/or obstructions to visibility.
 TC=TEMPERATURE CELSIUS

 * =Non NWS site. Station does not report precipitation (e.g. rain,
    snow, etc.), thunder, or fog.

DCZ001-MDZ009-015-VAZ040>042-051-053>054-281100-
WASHINGTON METRO

CITY           SKY/WX    TMP DP  RH WIND       PRES   REMARKS
WASHINGTON NAT PTCLDY    62  51  67 SW3       30.15R
DULLES         PTCLDY    54  48  80 N5        30.15R
ANDREWS AFB    CLEAR     53  48  85 CALM      30.14R
FT BELVOIR     CLEAR     51  49  92 CALM      30.15R
QUANTICO       CLEAR     56  54  93 NW8       30.16R
COLLEGE PARK*  CLEAR     52  51  96 CALM      30.14S
LEESBURG*      CLEAR     55  52  88 NW3       30.16S
MANASSAS*      CLEAR     49  48  97 CALM      30.17R
GAITHERSBURG*  CLEAR     50  49  96 CALM      30.16R

$$

MDZ006>007-011-014-281100-
BALTIMORE METRO

CITY           SKY/WX    TMP DP  RH WIND       PRES   REMARKS
BWI AIRPORT    PTCLDY    53  51  93 W5        30.13S
MD SCIENCE CTR   N/A     64  49  57 MISG      30.14R
MARTIN STATE   PTCLDY    57  52  82 CALM      30.15R
ANNAPOLIS      CLEAR     59  56  89 NW3       30.13R
FORT MEADE*    CLEAR     48  46  93 CALM      30.16R

$$

MDZ012-015-019>023-281100-
MARYLAND EASTERN SHORE

CITY           SKY/WX    TMP DP  RH WIND       PRES   REMARKS
OCEAN CITY     CLEAR     58  51  78 NW7       30.13R
SALISBURY      CLEAR     54  53  97 MISG      30.14R
BAY BRIDGE AP* PTCLDY    66  52  59 N5        30.14R
CAMBRIDGE*     CLEAR     55  54  94 CALM      30.14R
EASTON*        CLEAR     57  50  77 CALM      30.17R

$$

MDZ017>025-281100-
SOUTHERN MARYLAND

CITY           SKY/WX    TMP DP  RH WIND       PRES   REMARKS
PATUXENT RIVER PTCLDY    60  54  80 W3        30.14R
ST INIGOES     CLEAR     57  55  93 CALM      30.13R
LEONARDTOWN*   CLEAR     54  50  87 CALM      30.16R

$$

MDZ003>005-281100-
NORTH CENTRAL MARYLAND

CITY           SKY/WX    TMP DP  RH WIND       PRES   REMARKS
FREDERICK*     CLEAR     50  50 100 CALM      30.18S FOG
HAGERSTOWN APT CLEAR     53  49  86 SE3       30.15R
WESTMINSTER*   CLEAR     55  50  82 CALM      30.15R

$$

MDZ501>502-281100-
WESTERN MARYLAND

CITY           SKY/WX    TMP DP  RH WIND       PRES   REMARKS
OAKLAND*       NOT AVBL
CUMBERLAND*    CLEAR     48  48 100 CALM      30.22R

$$

VAZ025>031-281100-
SHENANDOAH VALLEY

CITY           SKY/WX    TMP DP  RH WIND       PRES   REMARKS
WINCHESTER*    CLEAR     46  45  93 CALM      30.16R
FRONT ROYAL*   CLEAR     54  48  82 S3        30.16R
LURAY*         CLEAR     50  50 100 SW3       30.18R
NEW MARKET*    CLEAR     47  46  95 CALM      30.19R
STAUNTON*      CLEAR     44  43  96 CALM      30.22R
WAYNESBORO*    CLEAR     47  47  99 CALM      30.20R

$$

WVZ021-048>050-054>055-281100-
EASTERN WEST VIRGINIA PANHANDLE

CITY           SKY/WX    TMP DP  RH WIND       PRES   REMARKS
MARTINSBURG    CLEAR     53  47  79 CALM      30.15R
PETERSBURG*    CLEAR     47  46  96 CALM      30.20R

$$

VAZ036>039-050-281100-
CENTRAL FOOTHILLS

CITY           SKY/WX    TMP DP  RH WIND       PRES   REMARKS
CHARLOTTESVILL CLEAR     55  50  83 CALM      30.17R
CULPEPER*      CLEAR     49  49 100 CALM      30.18R
ORANGE*        CLEAR     48  46  93 CALM      30.17R
GORDONSVILLE*  CLEAR     49  49  99 CALM      30.16S
WARRENTON*     CLEAR     48  46  90 CALM      30.16R

$$

VAZ055>057-281100-
NORTH AND CENTRAL PIEDMONT

CITY           SKY/WX    TMP DP  RH WIND       PRES   REMARKS
FREDERICKSBRG* CLEAR     54  52  95 CALM      30.16R
STAFFORD*      CLEAR     47  47 100 CALM      30.20R

$$

NCZ024-NYZ072-PAZ021-071-VAZ022-071-281100-
OTHER REGIONAL OBSERVATIONS

CITY           SKY/WX    TMP DP  RH WIND       PRES   REMARKS
NEW YORK CITY  CLEAR     62  51  67 VRB5      30.11R
PHILADELPHIA   CLEAR     62  49  62 NW7       30.12R
PITTSBURGH     PTCLDY    50  47  89 CALM      30.15R
ROANOKE        CLEAR     51  48  89 NW3       30.22R
RICHMOND       CLEAR     59  52  77 CALM      30.16R
RALEIGH        PTCLDY    60  55  83 NE5       30.16S

$$

ANZ530>537-281100-
MARINE OBSERVATIONS

STATION/POSITION TIME  TEMP    WIND        PRES
                       AIR SEA DIR/SP/G
                 (UTC) (F)     (DEG/KT/KT) (MB)
THOMAS PT LIGHT  1000   67 76  350/  8/  9   N/A
BALT KEY BRIDGE  0942   64     290/  6/  7 1020.3R
COVE POINT       0942   70      20/ 12/ 16 1021.0R
LEWISETTA        0942   69 78   10/  6/  9 1020.4R
SOLOMONS ISLAND  0942   66 78  350/  4/  5   N/A
PINEY POINT      0942           30/  5/  5   N/A

$$





USA.gov is the U.S. government's official web portal to all federal, state and local government web resources and services.